Location: Rio Negrinho
(26.2394°S, 49.4999°W)
Time: 17:48:12
(UTC+00:00)

N. Korean satellite - Visible Passes

Search period start: 03 August 2021 00:00
Search period end: 13 August 2021 00:00
Orbit: 451 x 498 km, 97.2° (Epoch: 03 August)

Date Brightness Start Highest point End Pass type
(mag) Time Alt. Az. Time Alt. Az. Time Alt. Az.
03 Aug 9.3 08:04:37 10° N 08:04:39 10° N 08:04:39 10° N visible
06 Aug 9.1 08:15:29 10° N 08:15:36 11° N 08:15:36 11° N visible
06 Aug 9.6 21:22:34 10° SW 21:24:38 15° WSW 21:26:41 10° WNW visible
09 Aug 9.0 08:26:25 10° NNW 08:26:34 11° NNW 08:26:34 11° NNW visible
09 Aug 10.1 21:34:43 10° WSW 21:35:16 10° WSW 21:35:47 10° W visible
10 Aug 9.2 07:58:34 10° NNE 07:58:49 12° NNE 07:58:49 12° NNE visible
12 Aug 8.9 08:37:29 10° NNW 08:37:32 10° NNW 08:37:32 10° NNW visible
